#timestamp,LO_Frequency,Hit,StdDev 
1610481615.3,286046999.1,N
1610481635.1,286046998.8,N
1610481655.9,286046999.0,N
1610481675.7,286046998.6,N
1610481695.5,286046998.3,N
1610481715.4,286047000.4,N
1610481735.2,286047000.6,N
1610481755.0,286046998.6,N
1610481755.9,286046998.6,N
1610481775.8,286047000.8,N
1610481795.6,286046998.5,N
1610481815.5,286047000.9,N
1610481835.3,286046998.2,N
1610481855.1,286047001.2,N
1610481875.9,286046999.2,N
1610481895.7,286047000.8,N
1610481915.6,286046999.0,N
1610481935.4,286046998.4,N
1610481955.2,286046997.7,N
1610481975.1,286046996.1,Y
1610481976.0,286046996.1,P
1610481995.8,286046997.4,N
1610482015.7,286046997.4,N
1610482035.5,286046997.9,N
1610482055.3,286046997.3,N
1610482075.2,286046997.3,N
1610482095.9,286046996.5,Y
1610482115.7,286046999.9,P
1610482135.6,286047002.7,N
1610482155.4,286047001.9,N
1610482175.3,286047000.2,N
1610482195.1,286047000.9,N
1610482196.0,286047000.9,N
1610482215.8,286047000.5,N
1610482235.7,286046998.3,N
1610482255.5,286046998.6,N
1610482275.3,286047000.8,N
1610482295.2,286046998.1,N
1610482315.0,286046998.2,N
1610482315.9,286046998.2,N
1610482335.8,286046996.6,N
1610482355.6,286046998.0,N
1610482375.4,286046997.3,N
1610482395.3,286046997.6,N
1610482415.1,286046996.9,N
1610482435.9,286046994.9,N
1610482455.7,286046998.9,N
1610482475.5,286047002.8,N
1610482495.4,286047003.1,N
1610482515.2,286047002.9,N
1610482535.1,286047003.3,N
1610482536.0,286047003.3,N
1610482555.8,286047004.0,N
1610482575.6,286047001.8,N
1610482595.5,286047001.4,N
1610482615.3,286047006.0,N
1610482635.1,286047004.0,N
1610482655.9,286047004.4,N
1610482675.7,286047000.1,N
1610482695.6,286047002.5,N
1610482715.4,286047000.6,N
1610482735.2,286046998.4,N
1610482755.1,286046996.6,N
1610482756.0,286046996.6,N
1610482775.8,286047001.2,N
1610482795.7,286046998.5,N
1610482815.5,286046999.3,N
1610482835.3,286046999.5,N
1610482855.2,286046998.2,N
1610482875.0,286047000.8,N
1610482875.9,286047000.8,N
1610482895.7,286046999.4,N
1610482915.6,286047000.8,N
1610482935.4,286047001.1,N
1610482955.3,286047000.7,N
1610482975.1,286047002.5,N
1610482995.8,286047002.2,N
1610483015.7,286046998.5,N
1610483035.5,286046998.8,N
1610483055.4,286046998.1,N
1610483075.2,286047000.6,N
1610483095.0,286047000.0,N
1610483095.9,286047000.0,N
1610483115.8,286047000.3,N
1610483135.6,286047000.7,N
1610483155.4,286047000.8,N
1610483175.3,286047000.8,N
1610483195.1,286046996.8,N
1610483215.9,286046997.2,N
1610483235.7,286046996.7,N
1610483255.5,286046996.7,N
1610483275.4,286046997.2,N
1610483295.2,286046998.7,N
1610483315.1,286046998.6,N
1610483316.0,286046998.6,N
1610483335.8,286046997.4,N
1610483355.6,286046997.3,N
1610483375.5,286046996.5,N
1610483395.3,286047001.1,N
1610483415.1,286046998.7,N
1610483435.9,286047000.5,N
1610483455.7,286046999.6,N
1610483475.6,286046996.7,N
1610483495.4,286046997.0,N
1610483515.2,286046999.1,N
1610483535.1,286046999.1,N
1610483536.0,286046999.1,N
1610483555.8,286046999.4,N
1610483575.7,286046998.8,N
1610483595.5,286046999.3,N
1610483615.3,286046997.7,N
1610483635.2,286046995.4,Y
1610483655.0,286046996.6,P
1610483655.9,286046996.6,P
1610483675.8,286047000.3,N
1610483695.6,286047000.8,N
1610483715.4,286047000.5,N
1610483735.3,286046998.1,N
1610483755.1,286047000.9,N
1610483775.8,286047000.0,N
1610483795.7,286047001.2,N
1610483815.5,286046998.1,N
1610483835.4,286047000.1,N
1610483855.2,286047000.0,N
1610483875.0,286047001.8,N
1610483875.9,286047001.8,N
1610483895.8,286047001.6,N
1610483915.6,286047003.6,N
1610483935.5,286047001.8,N
1610483955.3,286047001.4,N
1610483975.1,286047002.7,N
1610483995.9,286047002.6,N
1610484015.7,286047002.1,N
1610484035.5,286047002.3,N
1610484055.4,286047004.4,N
1610484075.2,286047002.6,N
1610484095.1,286046999.7,N
1610484096.0,286046999.7,N
1610484115.8,286046999.7,N
1610484135.7,286046998.2,N
1610484155.5,286046998.3,N
1610484175.3,286046996.9,N
1610484195.2,286046999.1,N
1610484215.0,286046998.7,N
1610484215.9,286046998.7,N
1610484235.7,286046998.9,N
1610484255.6,286046998.6,N
1610484275.4,286047000.3,N
1610484295.3,286047000.7,N
1610484315.1,286046999.9,N
1610484335.8,286047000.8,N
1610484355.7,286047002.5,N
1610484375.5,286047002.6,N
1610484395.4,286047002.3,N
1610484415.2,286047000.1,N
1610484435.0,286047002.4,N
1610484435.9,286047002.4,N
1610484455.8,286047001.1,N
1610484475.6,286046998.5,N
1610484495.4,286046996.6,N
1610484515.3,286046997.7,N
1610484535.1,286046996.9,N
1610484555.9,286046996.6,N
1610484575.7,286046999.0,N
1610484595.5,286046996.6,N
1610484615.4,286046998.5,N
1610484635.2,286047001.2,N
1610484655.1,286046996.7,N
1610484656.0,286046996.7,N
1610484675.8,286046997.4,N
1610484695.6,286046997.9,N
1610484715.5,286046996.6,N
1610484735.3,286046999.5,N
1610484755.1,286046999.6,N
1610484775.9,286046998.7,N
1610484795.7,286046998.7,N
1610484815.6,286046998.9,N
1610484835.4,286046999.2,N
1610484855.2,286046997.2,N
1610484875.1,286046997.1,N
1610484876.0,286046997.1,N
1610484895.8,286046997.6,N
1610484915.7,286046997.1,N
1610484935.5,286046998.0,N
1610484955.3,286046995.1,N
1610484975.2,286046997.5,N
1610484995.0,286046997.6,N
1610484995.9,286046997.6,N
1610485015.8,286046995.6,Y
1610485035.6,286046996.6,P
1610485055.4,286046997.9,P
1610485075.3,286046995.0,P
1610485095.1,286046995.7,Y
1610485115.8,286046998.9,P
1610485135.7,286047000.6,N
1610485185.6,286046999.3,E
1610485195.5,286046998.3,N
